Wind_Speed
31 24 22 16 24 30 35 38 39 39 39 39 39 38 37 38 39 39 41 41 42 43 43 44 44 41 40 38 35 34 34 32 18 18 21 13 18 23 25 25 22 21 20
32 27 30 29 20 18 28 33 37 38 39 39 38 38 40 41 41 41 42 41 42 43 45 43 47 43 43 42 40 41 40 38 30 24 22 25 22 24 27 27 26 25 23
34 33 27 31 31 27 23 19 28 34 37 38 37 37 38 39 41 42 43 43 43 45 45 42 47 40 43 42 44 42 42 38 40 29 26 25 29 26 27 30 30 28 27
34 34 31 30 31 32 29 26 21 20 29 34 38 39 38 38 38 40 42 44 44 45 46 44 46 42 46 41 42 43 38 34 34 33 28 26 27 30 28 33 33 34 32
33 32 32 28 32 34 34 32 29 24 21 22 31 35 38 37 38 39 40 42 43 44 45 45 47 48 49 48 40 41 38 35 28 27 25 23 27 22 32 32 35 35 33
31 31 33 30 32 35 36 35 33 32 30 28 23 25 34 37 37 38 40 41 42 42 40 42 45 45 45 47 50 47 43 39 34 30 29 22 31 33 33 36 33 23 7
29 31 32 29 30 34 34 35 36 35 33 34 31 26 26 29 33 37 40 43 40 39 39 38 38 39 40 44 46 49 49 51 48 40 32 35 35 39 36 35 37 30 27
30 28 31 28 29 33 34 35 35 35 34 35 34 31 28 28 28 30 35 41 42 41 40 40 41 38 39 41 43 42 44 46 48 49 47 47 47 38 43 43 42 40 29
28 30 31 30 29 31 31 34 33 33 34 34 33 33 33 32 28 27 27 34 33 36 40 41 43 41 40 39 41 39 39 42 41 50 56 51 45 41 42 34 31 22 14
29 31 34 35 34 33 32 33 34 33 32 33 34 34 33 31 30 27 26 28 28 29 32 36 40 44 42 41 43 39 36 36 33 36 45 49 44 42 43 45 39 28 17
33 35 35 34 36 31 30 33 33 35 33 33 34 34 32 29 29 27 25 26 26 26 26 28 31 35 40 45 47 43 42 37 35 39 39 36 38 40 43 45 47 41 33
31 32 32 34 36 32 33 35 36 33 32 30 28 27 26 29 27 30 28 27 27 27 28 29 31 33 35 39 42 48 48 45 36 30 30 30 32 35 40 44 48 49 46
28 27 27 29 31 33 31 30 29 28 24 24 21 22 26 28 28 29 32 30 30 30 31 32 33 34 36 37 42 44 44 40 35 32 28 32 32 35 36 38 41 44 44
29 30 31 29 27 27 28 28 26 24 24 23 20 23 26 27 31 29 30 31 34 36 33 34 33 33 30 32 34 37 40 36 35 33 32 33 30 30 33 37 35 38 33
28 27 27 28 29 28 29 28 29 29 28 25 25 26 26 29 33 38 39 38 34 36 41 31 27 25 27 26 29 30 30 31 32 33 30 27 28 28 30 33 30 26 26
24 24 25 25 26 27 28 29 30 31 32 33 33 33 36 38 38 40 41 44 44 42 33 24 24 22 21 22 21 24 29 31 31 31 30 28 26 28 27 28 28 25 26
24 25 25 25 24 24 26 28 28 36 34 35 36 37 34 33 38 38 40 42 42 37 24 22 21 22 21 21 23 24 25 29 31 29 29 28 28 27 28 26 28 25 23
23 23 22 22 24 24 25 26 27 25 26 36 30 30 37 39 37 35 34 35 31 26 24 22 21 22 23 22 23 24 25 26 29 28 28 27 27 28 26 25 27 26 24
23 22 24 23 23 24 24 24 25 26 26 27 32 35 29 33 37 35 32 29 27 25 25 23 24 24 25 25 26 27 27 26 27 26 27 27 28 28 26 26 26 28 27
23 24 24 22 23 24 24 24 24 25 26 25 26 28 34 35 30 27 26 26 26 26 26 27 27 26 27 27 26 26 25 25 25 26 26 27 28 29 28 26 26 25 26
23 23 25 23 24 24 24 25 26 25 25 26 26 28 34 30 29 28 30 28 27 28 29 28 29 29 27 28 27 26 26 26 26 27 27 26 27 27 28 26 27 28 26
23 24 25 24 24 26 27 26 26 26 27 27 29 31 35 30 30 31 31 32 33 29 28 30 31 31 29 28 28 27 26 27 26 27 27 27 27 27 27 26 27 26 26
21 23 25 24 24 27 26 26 26 27 28 28 30 30 31 31 31 31 32 34 33 33 34 30 26 26 29 31 31 31 30 29 30 29 29 27 28 28 28 27 27 26 27
21 22 23 24 25 25 25 26 27 29 29 28 30 31 32 33 33 34 35 36 36 36 33 32 31 34 35 35 33 31 32 34 32 31 34 30 30 30 29 29 29 30 29
21 20 21 24 23 24 25 26 26 27 27 29 29 29 30 32 34 36 37 37 38 36 37 37 34 35 33 32 33 34 35 37 38 34 33 34 33 31 31 30 30 29 30
22 21 20 22 23 23 25 25 26 27 28 29 29 31 32 32 33 34 37 39 39 38 39 38 40 39 37 33 30 29 28 29 35 37 35 32 30 28 25 25 30 31 32
Wind_Direction
23 16 8 300 275 269 262 260 259 260 260 259 258 259 259 260 257 254 253 251 250 250 250 250 250 249 248 244 240 238 238 233 232 249 254 243 232 225 224 230 235 242 249
13 17 25 24 11 299 276 271 267 263 263 263 263 262 261 259 258 254 255 251 250 248 249 248 250 248 247 247 244 240 237 237 227 244 246 238 237 234 231 234 237 242 246
7 8 9 12 14 10 0 313 284 275 271 268 264 261 261 260 256 255 255 255 253 253 250 245 249 244 245 243 243 240 239 234 236 233 243 244 243 238 231 233 237 241 245
2 2 3 3 2 2 3 3 351 312 284 277 272 266 263 261 259 258 256 254 252 252 253 249 250 242 245 241 241 240 237 231 230 228 237 238 237 237 232 234 234 237 241
352 354 355 354 354 355 355 354 354 353 334 304 278 271 268 262 259 257 257 254 251 250 251 251 253 252 253 250 239 240 234 229 223 225 229 231 227 218 219 227 231 238 239
348 346 346 346 347 349 348 347 347 346 346 343 322 291 273 267 260 260 257 253 251 247 245 248 252 250 251 252 251 246 244 226 220 218 225 224 228 224 227 223 221 219 243
343 339 340 342 340 341 342 342 343 341 340 339 336 325 306 290 278 268 260 251 247 247 246 247 247 249 247 250 248 246 243 243 239 231 227 224 231 227 221 217 220 222 224
333 331 334 335 332 331 334 336 336 337 334 332 332 333 326 313 306 290 276 265 252 249 248 248 248 247 247 247 247 243 240 237 236 234 236 238 239 236 235 233 227 226 223
324 324 328 328 326 324 323 327 329 330 328 328 327 327 327 322 317 310 295 275 259 255 253 251 250 249 249 244 242 240 242 242 239 243 245 242 238 242 235 225 213 196 207
313 319 323 320 321 319 319 321 319 323 321 323 321 322 321 319 319 318 311 292 268 263 261 258 254 252 250 250 243 238 243 244 241 238 243 242 239 239 238 234 223 204 201
315 316 313 314 316 315 313 315 313 315 316 318 319 318 319 320 319 319 317 311 286 272 266 263 257 255 254 251 247 240 242 250 247 242 238 237 231 227 226 231 231 222 211
317 311 306 307 310 308 309 313 312 308 307 308 311 312 312 314 314 317 315 312 307 288 277 273 268 264 258 253 249 248 249 249 245 240 232 228 223 219 221 227 229 235 229
321 320 319 313 309 307 302 301 299 300 296 298 299 305 309 311 309 309 312 311 312 306 302 296 287 275 269 264 256 252 250 243 243 241 231 234 228 227 226 224 227 228 226
308 305 307 311 311 307 303 296 290 291 293 293 294 302 305 306 307 305 306 310 311 309 305 303 301 297 284 269 260 252 246 236 235 239 238 236 235 220 212 215 215 217 212
305 309 304 299 294 294 296 298 297 292 288 284 295 298 301 301 300 298 297 300 301 302 304 299 290 285 276 266 257 247 241 237 234 238 240 231 225 207 206 210 210 202 209
321 318 315 314 312 301 297 295 292 291 291 290 291 292 293 290 292 294 295 298 301 305 300 291 283 275 261 261 250 245 240 236 236 236 233 226 210 203 202 201 206 202 205
320 315 313 312 308 303 302 302 303 303 298 294 293 293 294 294 296 294 292 296 299 302 285 281 275 274 268 259 254 246 243 241 241 235 231 221 210 206 199 195 200 199 203
326 325 322 320 314 310 304 299 295 294 299 305 304 299 295 298 297 292 292 296 295 294 283 276 277 278 274 267 260 252 253 247 238 232 227 220 209 205 200 200 200 199 201
347 344 342 337 332 331 332 328 323 313 300 295 301 305 306 303 295 292 295 285 282 284 287 280 278 279 279 276 269 261 255 252 242 232 225 216 208 204 208 205 203 201 194
356 357 356 351 349 350 347 343 338 335 332 325 330 333 324 306 297 296 291 279 273 275 279 278 281 280 279 279 276 268 258 251 244 234 227 217 211 206 210 203 198 193 197
358 2 9 1 3 359 358 355 350 348 346 343 340 341 343 333 337 304 291 285 277 273 274 274 280 280 279 278 278 274 264 254 242 237 235 224 212 206 208 206 198 197 196
4 4 3 3 6 5 8 4 359 357 354 352 350 351 355 354 349 344 339 337 333 302 279 276 277 279 281 280 279 273 268 260 252 241 235 228 215 207 205 202 195 195 189
9 8 7 4 7 8 7 6 3 3 360 357 357 357 356 355 352 349 344 342 337 334 329 317 293 285 287 289 283 272 266 263 256 246 230 217 210 204 200 197 193 192 189
14 12 8 6 8 6 5 4 3 3 4 1 360 358 358 358 356 353 353 351 346 343 340 334 322 304 293 287 281 276 266 264 260 245 231 216 211 204 198 195 194 192 188
15 12 10 3 360 2 360 1 1 359 359 0 356 358 358 358 359 358 356 355 355 353 350 347 341 333 328 315 300 289 278 271 269 248 230 219 210 203 199 192 190 188 184
11 12 8 3 359 3 0 359 358 357 356 357 357 358 356 355 357 357 358 357 356 357 356 355 353 350 350 338 331 318 303 290 277 258 233 215 206 190 197 196 188 185 177
Height
782 778 774 772 771 772 772 771 772 773 774 775 776 777 778 780 781 783 784 785 786 788 789 790 790 793 794 796 798 799 800 803 803 800 801 802 803 805 807 809 810 809 811
785 782 778 773 770 768 767 766 766 766 766 767 767 768 769 770 772 774 775 776 777 778 779 782 780 784 785 787 789 789 790 791 795 793 794 796 797 799 801 802 803 804 805
786 783 779 776 772 769 765 762 761 760 760 759 760 760 760 761 762 764 765 766 767 767 769 771 772 775 776 777 778 779 780 782 784 786 785 788 791 792 794 796 796 797 797
788 784 780 777 774 770 765 761 758 756 754 753 753 752 752 753 753 754 755 756 756 757 758 759 761 763 764 767 769 770 773 774 775 777 779 780 783 785 786 787 787 788 789
788 785 781 777 773 769 764 761 757 754 751 749 747 745 745 745 745 745 746 746 746 746 747 748 749 751 753 756 759 760 763 765 768 770 771 771 773 774 772 773 777 779 781
788 784 780 776 772 768 764 759 755 751 747 745 742 740 738 736 736 736 736 736 736 736 737 737 739 741 742 744 746 750 750 752 754 757 758 758 758 759 762 764 768 773 777
787 784 779 775 771 767 763 758 754 749 745 742 738 735 732 730 729 729 729 728 727 726 727 728 728 729 731 733 735 736 736 737 740 743 744 744 744 745 750 755 758 760 759
784 780 777 773 769 765 761 757 753 749 744 739 735 731 728 725 722 721 720 719 717 717 717 717 717 719 720 723 724 723 724 724 725 730 728 728 729 735 736 739 744 749 752
781 777 773 770 766 762 758 754 750 745 741 736 733 728 725 720 717 715 713 711 709 707 707 707 707 707 710 713 713 712 711 709 714 715 714 716 721 724 728 734 738 743 744
778 774 770 767 762 758 754 750 746 742 738 733 728 725 721 716 712 710 707 704 701 699 698 696 696 696 699 702 702 702 699 699 704 705 705 708 713 716 717 719 723 728 730
774 770 766 763 758 754 750 746 742 737 733 729 724 720 716 712 707 704 702 699 695 692 689 687 685 685 686 688 689 688 686 693 692 692 693 694 698 701 703 707 709 713 715
771 766 762 758 753 750 745 741 736 732 728 724 719 714 711 707 704 699 696 693 690 687 683 680 677 676 675 675 676 675 678 681 682 682 682 682 684 686 690 693 697 700 702
768 763 758 753 749 745 740 735 731 727 723 719 715 711 706 702 699 695 690 686 683 680 676 671 669 667 666 665 664 665 667 669 670 670 668 669 672 674 680 684 688 691 694
764 760 755 750 745 740 735 731 726 722 718 714 710 705 701 698 693 689 685 680 676 671 667 663 660 657 655 654 653 654 655 657 657 656 656 658 663 665 669 672 677 680 686
759 754 749 744 738 734 730 726 721 717 714 709 705 702 697 691 688 684 680 675 671 667 662 656 651 648 646 644 643 643 644 646 646 647 647 649 651 655 659 662 668 672 677
755 750 745 740 735 729 723 717 713 709 706 702 698 696 690 685 681 677 671 666 662 659 654 649 644 641 638 637 636 634 634 635 635 636 637 639 641 644 649 654 659 662 666
754 748 742 737 731 725 720 715 707 699 698 694 689 684 680 677 672 668 664 658 653 650 645 641 637 634 631 628 628 627 625 624 625 626 627 628 631 635 640 643 648 653 657
751 745 740 735 729 723 718 712 706 699 691 678 678 677 671 666 661 657 654 650 644 640 637 633 630 627 624 621 619 618 616 616 615 616 617 619 621 625 629 633 637 641 647
750 745 740 734 728 721 715 709 702 695 688 681 673 664 664 658 653 649 647 644 639 634 630 625 622 619 617 614 612 610 608 608 607 607 607 608 611 615 619 622 627 631 637
752 747 742 736 730 723 716 710 703 697 690 683 676 670 661 652 644 640 638 635 630 626 623 618 614 612 609 607 605 602 601 600 599 599 599 600 602 604 608 612 617 622 627
755 750 744 737 732 726 720 714 708 701 694 687 681 674 667 656 644 635 630 626 622 617 614 611 607 603 601 599 597 595 593 591 590 590 591 591 593 594 598 602 607 612 618
758 753 746 741 735 730 724 718 711 705 699 691 683 675 666 658 651 643 635 627 619 612 607 603 599 596 593 591 589 587 584 582 581 581 580 582 584 586 590 594 598 603 609
760 755 750 744 739 734 727 722 716 710 703 695 687 679 670 663 656 648 639 630 621 613 605 598 592 588 586 583 580 577 574 571 570 570 570 570 573 575 579 584 589 595 600
762 758 753 748 743 737 732 726 720 714 707 700 693 685 678 669 661 652 643 633 623 613 605 598 591 584 578 573 570 566 562 560 560 558 559 560 562 564 567 572 577 582 589
763 760 756 751 746 741 735 730 724 717 711 704 697 690 683 675 666 657 648 638 628 618 608 598 590 581 572 565 560 556 552 550 549 548 548 549 550 553 557 559 567 573 580
765 761 758 754 749 744 738 732 726 720 713 707 700 693 686 678 670 662 653 643 632 622 613 603 593 581 569 561 553 548 542 539 538 537 538 539 542 542 551 554 559 565 568